Lancaster, PA

4:02 PM EDT on July 23, 2017 (GMT -0400)
Lancaster

Weather History for KLNS - January, 2011

Change the Weather History Date:

Sunday, January 9, 2011

  Actual Average Record
Temperature  
Mean Temperature 24 °F -  
Max Temperature 30 °F 36 °F 62 °F (1998)
Min Temperature 19 °F 21 °F -4 °F (1981)
Degree Days  
Heating Degree Days 40    
Moisture  
Dew Point 12 °F    
Average Humidity 60    
Maximum Humidity 68    
Minimum Humidity 49    
Precipitation  
Precipitation 0.00 in - - ()
Sea Level Pressure  
Sea Level Pressure 30.02 in    
Wind  
Wind Speed 15 mph (WNW)    
Max Wind Speed 22 mph    
Max Gust Speed 31 mph    
Visibility 10 miles    
Events      
Averages and records for this station are not official NWS values.
T = Trace of Precipitation, MM = Missing Value Source: NWS Daily Summary

Daily Weather History Graph

Daily Weather History Graph

Search for Another Location

Airport or City:

Trip Planner

Search our weather history database for the weather conditions in past years. The results will help you decide how hot, cold, wet, or windy it might be!

Date:

Astronomy

Jan. 09, 2011 Rise Set
Actual Time 7:27 AM EST 4:57 PM EST
Civil Twilight 6:57 AM EST 5:27 PM EST
Nautical Twilight 6:23 AM EST 6:01 PM EST
Astronomical Twilight 5:50 AM EST 6:34 PM EST
Moon 9:58 AM EST (1/9) 10:25 PM EST (1/9)
Length of Visible Light 10h 30m
Length of Day
9h 30m
Waxing Crescent, 25% of the Moon is Illuminated
Jan 9
Waxing Crescent
Jan 12
First Quarter
Jan 19
Full
Jan 26
Last Quarter
Feb 2
New

Hourly Weather History & Observations

Time (EST) Temp. Windchill Dew Point Humidity Pressure Visibility Wind Dir Wind Speed Gust Speed Precip Events Conditions
12:53 AM 21.0 °F 7.1 °F 10.9 °F 65% 29.71 in 10.0 mi WNW 16.1 mph 24.2 mph N/A   Clear
1:53 AM 21.0 °F 7.6 °F 12.0 °F 68% 29.76 in 10.0 mi WNW 15.0 mph - N/A   Partly Cloudy
2:53 AM 21.0 °F 8.6 °F 12.0 °F 68% 29.80 in 10.0 mi WNW 12.7 mph - N/A   Clear
3:53 AM 19.9 °F 7.9 °F 10.9 °F 68% 29.84 in 10.0 mi West 11.5 mph - N/A   Partly Cloudy
4:53 AM 19.9 °F 8.6 °F 10.0 °F 65% 29.87 in 10.0 mi West 10.4 mph - N/A   Clear
5:53 AM 19.9 °F 6.7 °F 10.0 °F 65% 29.88 in 10.0 mi West 13.8 mph - N/A   Clear
6:53 AM 19.9 °F 7.3 °F 10.0 °F 65% 29.92 in 10.0 mi WNW 12.7 mph - N/A   Clear
7:53 AM 21.0 °F 7.1 °F 10.9 °F 65% 29.94 in 10.0 mi West 16.1 mph 24.2 mph N/A   Mostly Cloudy
8:53 AM 23.0 °F 9.6 °F 10.9 °F 60% 29.98 in 10.0 mi WNW 16.1 mph - N/A   Clear
9:53 AM 25.0 °F 10.9 °F 10.9 °F 55% 30.01 in 10.0 mi NW 19.6 mph 27.6 mph N/A   Partly Cloudy
10:53 AM 26.1 °F 12.7 °F 12.0 °F 55% 30.01 in 10.0 mi WNW 18.4 mph 31.1 mph N/A   Partly Cloudy
11:53 AM 28.0 °F 16.1 °F 14.0 °F 56% 30.01 in 10.0 mi WNW 16.1 mph 29.9 mph N/A   Partly Cloudy
12:53 PM 28.9 °F 15.4 °F 14.0 °F 54% 30.02 in 10.0 mi WNW 21.9 mph 26.5 mph N/A   Mostly Cloudy
1:53 PM 30.0 °F 18.3 °F 14.0 °F 51% 30.02 in 10.0 mi NW 17.3 mph 28.8 mph N/A   Partly Cloudy
2:53 PM 30.0 °F 16.9 °F 12.9 °F 49% 30.06 in 10.0 mi WNW 21.9 mph 29.9 mph N/A   Clear
3:53 PM 28.9 °F 15.4 °F 12.9 °F 51% 30.11 in 10.0 mi WNW 21.9 mph 27.6 mph N/A   Clear
4:53 PM 27.0 °F 13.9 °F 12.9 °F 56% 30.14 in 10.0 mi WNW 18.4 mph - N/A   Clear
5:53 PM 26.1 °F 14.5 °F 12.0 °F 55% 30.17 in 10.0 mi WNW 13.8 mph - N/A   Clear
6:53 PM 26.1 °F 14.5 °F 12.9 °F 58% 30.20 in 10.0 mi WNW 13.8 mph - N/A   Clear
7:53 PM 24.1 °F 13.1 °F 12.9 °F 62% 30.21 in 10.0 mi West 11.5 mph - N/A   Clear
8:53 PM 25.0 °F 13.6 °F 14.0 °F 63% 30.23 in 10.0 mi WNW 12.7 mph - N/A   Clear
9:53 PM 25.0 °F 14.8 °F 12.9 °F 60% 30.23 in 10.0 mi WNW 10.4 mph - N/A   Clear
10:53 PM 24.1 °F 13.1 °F 12.9 °F 62% 30.24 in 10.0 mi WNW 11.5 mph - N/A   Clear
11:53 PM 21.9 °F 10.4 °F 12.0 °F 66% 30.24 in 10.0 mi WNW 11.5 mph - N/A   Clear